,,,PA_Meas_PMT16A,,PR_Meas_QMR101_102,,RH_Meas_QMH101,,SR_Meas_QMS101,,TA_Meas_QMH101,,GenWind,,GenWind,
date,time,status,PA,status,PR,status,RH,status,SR,status,TA,status,DirAvg,status,SpdAvg,
2009-06-15, 00:00:04,VALID,1005.5,VALID,0,VALID,90.3259,VALID,0,VALID,25.6116,VALID,16,VALID,1.1418,
2009-06-15, 00:01:04,VALID,1005.49,VALID,0,VALID,90.5167,VALID,0,VALID,25.5902,VALID,31,VALID,1.15156,
2009-06-15, 00:02:04,VALID,1005.46,VALID,0,VALID,90.5548,VALID,0,VALID,25.5707,VALID,348,VALID,1.00078,
2009-06-15, 00:03:04,VALID,1005.46,VALID,0,VALID,90.654,VALID,0,VALID,25.5513,VALID,20,VALID,1.14883,
2009-06-15, 00:04:04,VALID,1005.44,VALID,0,VALID,90.6616,VALID,0,VALID,25.5532,VALID,1,VALID,0.49375,
2009-06-15, 00:05:04,VALID,1005.45,VALID,0,VALID,90.7989,VALID,0,VALID,25.5123,VALID,353,VALID,0.691406,
2009-06-15, 00:06:04,VALID,1005.44,VALID,0,VALID,90.8752,VALID,0,VALID,25.5337,VALID,5,VALID,0.741797,
2009-06-15, 00:07:04,VALID,1005.44,VALID,0,VALID,91.0583,VALID,0,VALID,25.5318,VALID,12,VALID,1.31211,
2009-06-15, 00:08:04,VALID,1005.43,VALID,0,VALID,90.8218,VALID,0,VALID,25.5921,VALID,353,VALID,0.996094,
2009-06-15, 00:09:04,VALID,1005.4,VALID,0,VALID,90.6692,VALID,0,VALID,25.6311,VALID,8,VALID,0.909766,
2009-06-15, 00:10:04,VALID,1005.4,VALID,0,VALID,90.7303,VALID,0,VALID,25.6506,VALID,5,VALID,0.617969,
2009-06-15, 00:11:04,VALID,1005.38,VALID,0,VALID,90.4556,VALID,0,VALID,25.6292,VALID,357,VALID,0.564062,
2009-06-15, 00:12:04,VALID,1005.4,VALID,0,VALID,90.3336,VALID,0,VALID,25.6116,VALID,359,VALID,0.540625,
2009-06-15, 00:13:04,VALID,1005.39,VALID,0,VALID,90.5396,VALID,0,VALID,25.5707,VALID,360,VALID,0.665625,
2009-06-15, 00:14:04,VALID,1005.36,VALID,0,VALID,90.5853,VALID,0,VALID,25.5337,VALID,360,VALID,0.405469,
2009-06-15, 00:15:04,VALID,1005.34,VALID,0,VALID,90.6998,VALID,0,VALID,25.5142,VALID,11,VALID,0.465625,
2009-06-15, 00:16:04,VALID,1005.33,VALID,0,VALID,90.9439,VALID,0,VALID,25.4753,VALID,15,VALID,0.930078,
2009-06-15, 00:17:04,VALID,1005.3,VALID,0,VALID,91.188,VALID,0,VALID,25.5142,VALID,352,VALID,0.636719,
2009-06-15, 00:18:04,VALID,1005.28,VALID,0,VALID,91.0507,VALID,0,VALID,25.4948,VALID,5,VALID,0.559375,
2009-06-15, 00:19:04,VALID,1005.25,VALID,0,VALID,91.0965,VALID,0,VALID,25.4734,VALID,24,VALID,0.547656,
2009-06-15, 00:20:04,VALID,1005.21,VALID,0,VALID,91.1956,VALID,0,VALID,25.4948,VALID,33,VALID,0.470313,
2009-06-15, 00:21:04,VALID,1005.21,VALID,0,VALID,91.188,VALID,0,VALID,25.5142,VALID,34,VALID,0.332422,
2009-06-15, 00:22:04,VALID,1005.19,VALID,0,VALID,91.1346,VALID,0,VALID,25.4948,VALID,34,VALID,0.303516,
2009-06-15, 00:23:04,VALID,1005.15,VALID,0,VALID,91.188,VALID,0,VALID,25.4539,VALID,36,VALID,0.447266,
2009-06-15, 00:24:04,VALID,1005.17,VALID,0,VALID,91.3253,VALID,0,VALID,25.5337,VALID,79,VALID,1.11992,
2009-06-15, 00:25:04,VALID,1005.14,VALID,0,VALID,91.1422,VALID,0,VALID,25.5707,VALID,79,VALID,0.204297,
2009-06-15, 00:26:04,VALID,1005.11,VALID,0,VALID,90.982,VALID,0,VALID,25.6097,VALID,92,VALID,0.557031,
2009-06-15, 00:27:04,VALID,1005.08,VALID,0,VALID,90.7837,VALID,0,VALID,25.6311,VALID,92,VALID,0.585547,
2009-06-15, 00:28:04,VALID,1005.11,VALID,0,VALID,90.6235,VALID,0,VALID,25.6311,VALID,92,VALID,0.241797,
2009-06-15, 00:29:04,VALID,1005.08,VALID,0,VALID,90.5319,VALID,0,VALID,25.6311,VALID,92,VALID,0.474219,
2009-06-15, 00:30:04,VALID,1005.09,VALID,0,VALID,90.5396,VALID,0,VALID,25.5902,VALID,62,VALID,0.795703,
2009-06-15, 00:31:04,VALID,1005.06,VALID,0,VALID,90.6082,VALID,0,VALID,25.5707,VALID,28,VALID,0.7125,
2009-06-15, 00:32:04,VALID,1005.06,VALID,0,VALID,90.6311,VALID,0,VALID,25.5707,VALID,67,VALID,0.769922,
2009-06-15, 00:33:04,VALID,1005.03,VALID,0,VALID,90.6006,VALID,0,VALID,25.6116,VALID,71,VALID,0.401953,
2009-06-15, 00:34:04,VALID,1005.03,VALID,0,VALID,90.4251,VALID,0,VALID,25.5707,VALID,40,VALID,0.401172,
2009-06-15, 00:35:04,VALID,1005,VALID,0,VALID,90.2878,VALID,0,VALID,25.4928,VALID,53,VALID,0.413281,
2009-06-15, 00:36:04,VALID,1005.01,VALID,0,VALID,90.5472,VALID,0,VALID,25.4539,VALID,43,VALID,0.656641,
2009-06-15, 00:37:04,VALID,1004.99,VALID,0,VALID,90.6006,VALID,0,VALID,25.3974,VALID,21,VALID,0.540625,
2009-06-15, 00:38:04,VALID,1004.96,VALID,0,VALID,90.7532,VALID,0,VALID,25.339,VALID,41,VALID,0.569141,
2009-06-15, 00:39:04,VALID,1004.94,VALID,0,VALID,90.982,VALID,0,VALID,25.339,VALID,35,VALID,0.596875,
2009-06-15, 00:40:04,VALID,1004.92,VALID,0,VALID,91.0812,VALID,0,VALID,25.3,VALID,31,VALID,0.658984,
2009-06-15, 00:41:04,VALID,1004.93,VALID,0,VALID,91.2872,VALID,0,VALID,25.2592,VALID,24,VALID,0.322266,
2009-06-15, 00:42:04,VALID,1004.9,VALID,0,VALID,91.3787,VALID,0,VALID,25.2397,VALID,24,VALID,0.395703,
2009-06-15, 00:43:04,VALID,1004.88,VALID,0,VALID,91.394,VALID,0,VALID,25.2611,VALID,24,VALID,0.405078,
2009-06-15, 00:44:04,VALID,1004.9,VALID,0,VALID,91.5313,VALID,0,VALID,25.2416,VALID,19,VALID,0.802734,
2009-06-15, 00:45:04,VALID,1004.9,VALID,0,VALID,91.8517,VALID,0,VALID,25.3584,VALID,18,VALID,1.18906,
2009-06-15, 00:46:04,VALID,1004.9,VALID,0,VALID,91.5466,VALID,0,VALID,25.4753,VALID,18,VALID,0.944922,
2009-06-15, 00:47:04,VALID,1004.91,VALID,0,VALID,91.1422,VALID,0.100563,VALID,25.5532,VALID,4,VALID,0.843359,
2009-06-15, 00:48:04,VALID,1004.93,VALID,0,VALID,90.6464,VALID,0,VALID,25.5337,VALID,360,VALID,0.600781,
2009-06-15, 00:49:04,VALID,1004.93,VALID,0,VALID,90.7074,VALID,0,VALID,25.5142,VALID,20,VALID,0.747266,
2009-06-15, 00:50:04,VALID,1004.95,VALID,0,VALID,90.7684,VALID,0,VALID,25.4948,VALID,352,VALID,0.66875,
2009-06-15, 00:51:04,VALID,1004.96,VALID,0,VALID,90.7684,VALID,0,VALID,25.4539,VALID,28,VALID,0.7,
2009-06-15, 00:52:04,VALID,1004.95,VALID,0,VALID,90.8447,VALID,0,VALID,25.4558,VALID,16,VALID,0.910547,
2009-06-15, 00:53:04,VALID,1004.93,VALID,0,VALID,91.0354,VALID,0,VALID,25.4734,VALID,24,VALID,0.636328,
2009-06-15, 00:54:04,VALID,1004.92,VALID,0,VALID,91.1651,VALID,0,VALID,25.4948,VALID,21,VALID,1.38945,
2009-06-15, 00:55:04,VALID,1004.93,VALID,0,VALID,91.1728,VALID,0,VALID,25.5513,VALID,18,VALID,1.02617,
2009-06-15, 00:56:04,VALID,1004.92,VALID,0,VALID,91.0431,VALID,0,VALID,25.6486,VALID,30,VALID,0.992578,
2009-06-15, 00:57:04,VALID,1004.93,VALID,0,VALID,90.7532,VALID,0,VALID,25.6876,VALID,43,VALID,0.798437,
2009-06-15, 00:58:04,VALID,1004.93,VALID,0,VALID,90.7913,VALID,0,VALID,25.748,VALID,53,VALID,1.30117,
2009-06-15, 00:59:04,VALID,1004.93,VALID,0,VALID,90.7074,VALID,0,VALID,25.7655,VALID,74,VALID,0.719531,
2009-06-15, 01:00:04,VALID,1004.93,VALID,0,VALID,90.5396,VALID,0,VALID,25.8064,VALID,76,VALID,0.650391,
2009-06-15, 01:01:04,VALID,1004.89,VALID,0,VALID,90.448,VALID,0,VALID,25.785,VALID,45,VALID,0.73125,
2009-06-15, 01:02:04,VALID,1004.85,VALID,0,VALID,90.6387,VALID,0,VALID,25.8044,VALID,27,VALID,1.93594,
2009-06-15, 01:03:04,VALID,1004.83,VALID,0,VALID,90.448,VALID,0,VALID,25.8259,VALID,25,VALID,0.995703,
2009-06-15, 01:04:04,VALID,1004.77,VALID,0,VALID,90.4327,VALID,0,VALID,25.8453,VALID,29,VALID,1.1418,
2009-06-15, 01:05:04,VALID,1004.78,VALID,0,VALID,90.4251,VALID,0,VALID,25.8044,VALID,30,VALID,0.777344,
2009-06-15, 01:06:04,VALID,1004.74,VALID,0,VALID,90.4404,VALID,0,VALID,25.8259,VALID,34,VALID,0.982031,
2009-06-15, 01:07:04,VALID,1004.71,VALID,0,VALID,90.4251,VALID,0,VALID,25.8239,VALID,79,VALID,0.49375,
2009-06-15, 01:08:04,VALID,1004.72,VALID,0,VALID,90.4099,VALID,0,VALID,25.8259,VALID,31,VALID,0.9625,
2009-06-15, 01:09:04,VALID,1004.7,VALID,0,VALID,90.3336,VALID,0,VALID,25.8064,VALID,19,VALID,0.703906,
2009-06-15, 01:10:04,VALID,1004.68,VALID,0,VALID,90.6158,VALID,0,VALID,25.8259,VALID,26,VALID,1.06641,
2009-06-15, 01:11:04,VALID,1004.68,VALID,0,VALID,90.4785,VALID,0,VALID,25.8648,VALID,13,VALID,1.05234,
2009-06-15, 01:12:04,VALID,1004.7,VALID,0,VALID,90.4175,VALID,0,VALID,25.8044,VALID,32,VALID,0.872266,
2009-06-15, 01:13:04,VALID,1004.65,VALID,0,VALID,90.2878,VALID,0,VALID,25.8064,VALID,36,VALID,0.662891,
2009-06-15, 01:14:04,VALID,1004.67,VALID,0,VALID,90.4022,VALID,0,VALID,25.7869,VALID,24,VALID,1.00898,
2009-06-15, 01:15:04,VALID,1004.66,VALID,0,VALID,90.5853,VALID,0,VALID,25.746,VALID,15,VALID,0.655859,
2009-06-15, 01:16:04,VALID,1004.63,VALID,0,VALID,90.5777,VALID,0,VALID,25.746,VALID,15,VALID,0.713672,
2009-06-15, 01:17:04,VALID,1004.65,VALID,0,VALID,90.7532,VALID,0,VALID,25.7674,VALID,21,VALID,1.08633,
2009-06-15, 01:18:04,VALID,1004.62,VALID,0,VALID,90.7303,VALID,0,VALID,25.8064,VALID,22,VALID,1.26797,
2009-06-15, 01:19:04,VALID,1004.6,VALID,0,VALID,90.6692,VALID,0,VALID,25.8259,VALID,338,VALID,1.00352,
2009-06-15, 01:20:04,VALID,1004.59,VALID,0,VALID,90.4862,VALID,0,VALID,25.8259,VALID,42,VALID,0.44375,
2009-06-15, 01:21:04,VALID,1004.55,VALID,0,VALID,90.4633,VALID,0,VALID,25.785,VALID,15,VALID,0.825,
2009-06-15, 01:22:04,VALID,1004.51,VALID,0,VALID,90.5701,VALID,0,VALID,25.8044,VALID,1,VALID,0.76875,
2009-06-15, 01:23:04,VALID,1004.49,VALID,0,VALID,90.6235,VALID,0,VALID,25.8453,VALID,35,VALID,1.23594,
2009-06-15, 01:24:04,VALID,1004.44,VALID,0,VALID,90.4022,VALID,0,VALID,25.8629,VALID,63,VALID,0.513672,
2009-06-15, 01:25:04,VALID,1004.46,VALID,0,VALID,90.3412,VALID,0,VALID,25.8823,VALID,56,VALID,1.19219,
2009-06-15, 01:26:04,VALID,1004.46,VALID,0,VALID,90.2725,VALID,0,VALID,25.9213,VALID,92,VALID,0.760938,
2009-06-15, 01:27:04,VALID,1004.45,VALID,0,VALID,90.1123,VALID,0,VALID,25.9232,VALID,105,VALID,0.130469,
2009-06-15, 01:28:04,VALID,1004.41,VALID,0,VALID,90.0513,VALID,0,VALID,25.8823,VALID,101,VALID,0.174609,
2009-06-15, 01:29:04,VALID,1004.4,VALID,0,VALID,90.1581,VALID,0,VALID,25.8843,VALID,50,VALID,0.402734,
2009-06-15, 01:30:04,VALID,1004.39,VALID,0,VALID,90.2573,VALID,0,VALID,25.8823,VALID,46,VALID,0.624609,
2009-06-15, 01:31:04,VALID,1004.37,VALID,0,VALID,90.2344,VALID,0.100563,VALID,25.8629,VALID,63,VALID,0.709766,
2009-06-15, 01:32:04,VALID,1004.37,VALID,0,VALID,90.3259,VALID,0,VALID,25.8629,VALID,29,VALID,1.15313,
2009-06-15, 01:33:04,VALID,1004.35,VALID,0,VALID,90.3488,VALID,0,VALID,25.8843,VALID,80,VALID,0.979297,
2009-06-15, 01:34:04,VALID,1004.32,VALID,0,VALID,90.3107,VALID,0,VALID,25.8629,VALID,10,VALID,0.773047,
2009-06-15, 01:35:04,VALID,1004.32,VALID,0,VALID,90.3183,VALID,0,VALID,25.8434,VALID,9,VALID,0.428125,
2009-06-15, 01:36:04,VALID,1004.35,VALID,0,VALID,90.2649,VALID,0,VALID,25.8453,VALID,29,VALID,0.376172,
2009-06-15, 01:37:04,VALID,1004.33,VALID,0,VALID,90.3793,VALID,0,VALID,25.8453,VALID,24,VALID,0.800781,
2009-06-15, 01:38:04,VALID,1004.31,VALID,0,VALID,90.3946,VALID,0,VALID,25.8453,VALID,18,VALID,0.209375,
2009-06-15, 01:39:04,VALID,1004.31,VALID,0,VALID,90.3107,VALID,0,VALID,25.8453,VALID,18,VALID,0.878906,
2009-06-15, 01:40:04,VALID,1004.29,VALID,0,VALID,90.387,VALID,0,VALID,25.8823,VALID,32,VALID,1.86563,
2009-06-15, 01:41:04,VALID,1004.28,VALID,0,VALID,90.181,VALID,0,VALID,25.9018,VALID,79,VALID,0.753516,
2009-06-15, 01:42:04,VALID,1004.26,VALID,0,VALID,90.036,VALID,0,VALID,25.9427,VALID,52,VALID,0.710156,
2009-06-15, 01:43:04,VALID,1004.25,VALID,0,VALID,90.0437,VALID,0,VALID,25.9427,VALID,57,VALID,0.641406,
2009-06-15, 01:44:04,VALID,1004.23,VALID,0,VALID,90.0132,VALID,0,VALID,25.9408,VALID,42,VALID,0.824219,
2009-06-15, 01:45:04,VALID,1004.23,VALID,0,VALID,89.9521,VALID,0.100563,VALID,25.9622,VALID,61,VALID,0.532031,
2009-06-15, 01:46:04,VALID,1004.19,VALID,0,VALID,89.9674,VALID,0,VALID,25.9427,VALID,32,VALID,0.383203,
2009-06-15, 01:47:04,VALID,1004.18,VALID,0,VALID,89.9903,VALID,0,VALID,25.9018,VALID,261,VALID,0.2,
2009-06-15, 01:48:04,VALID,1004.19,VALID,0,VALID,90.0132,VALID,0.100563,VALID,25.8823,VALID,13,VALID,1.00508,
2009-06-15, 01:49:04,VALID,1004.17,VALID,0,VALID,90.0589,VALID,0,VALID,25.9038,VALID,35,VALID,0.529688,
2009-06-15, 01:50:04,VALID,1004.2,VALID,0,VALID,90.1276,VALID,0,VALID,25.9018,VALID,96,VALID,1.33828,
2009-06-15, 01:51:04,VALID,1004.21,VALID,0,VALID,90.036,VALID,0,VALID,25.9018,VALID,53,VALID,1.21875,
2009-06-15, 01:52:04,VALID,1004.18,VALID,0,VALID,89.9064,VALID,0,VALID,25.9427,VALID,354,VALID,0.491406,
2009-06-15, 01:53:04,VALID,1004.19,VALID,0,VALID,89.8606,VALID,0,VALID,25.9232,VALID,354,VALID,0.598047,
2009-06-15, 01:54:04,VALID,1004.19,VALID,0,VALID,89.9292,VALID,0,VALID,25.9038,VALID,354,VALID,0.384766,
2009-06-15, 01:55:04,VALID,1004.18,VALID,0,VALID,89.9216,VALID,0,VALID,25.8823,VALID,354,VALID,0,
2009-06-15, 01:56:04,VALID,1004.17,VALID,0,VALID,89.9674,VALID,0,VALID,25.8629,VALID,337,VALID,0.665625,
2009-06-15, 01:57:04,VALID,1004.22,VALID,0,VALID,90.0208,VALID,0,VALID,25.8648,VALID,356,VALID,0.185937,
2009-06-15, 01:58:04,VALID,1004.22,VALID,0,VALID,90.0818,VALID,0,VALID,25.8453,VALID,16,VALID,0.740234,
2009-06-15, 01:59:04,VALID,1004.2,VALID,0,VALID,90.1886,VALID,0,VALID,25.8064,VALID,23,VALID,0.410156,
2009-06-15, 02:00:04,VALID,1004.19,VALID,0,VALID,90.2115,VALID,0,VALID,25.8064,VALID,23,VALID,0.257813,
2009-06-15, 02:01:04,VALID,1004.17,VALID,0,VALID,90.3031,VALID,0,VALID,25.7869,VALID,12,VALID,0.0796875,
2009-06-15, 02:02:04,VALID,1004.19,VALID,0,VALID,90.387,VALID,0,VALID,25.7265,VALID,12,VALID,0,
2009-06-15, 02:03:04,VALID,1004.2,VALID,0,VALID,90.4633,VALID,0.100563,VALID,25.7265,VALID,12,VALID,0.273828,
2009-06-15, 02:04:04,VALID,1004.2,VALID,0,VALID,90.509,VALID,0.100563,VALID,25.7071,VALID,12,VALID,0.300781,
2009-06-15, 02:05:04,VALID,1004.2,VALID,0,VALID,90.6692,VALID,0,VALID,25.709,VALID,355,VALID,0.481641,
2009-06-15, 02:06:04,VALID,1004.23,VALID,0,VALID,90.6921,VALID,0,VALID,25.6681,VALID,350,VALID,0.519141,
2009-06-15, 02:07:04,VALID,1004.2,VALID,0,VALID,90.6998,VALID,0,VALID,25.6895,VALID,350,VALID,0.18125,
2009-06-15, 02:08:04,VALID,1004.23,VALID,0,VALID,90.715,VALID,0,VALID,25.6681,VALID,352,VALID,0.165234,
2009-06-15, 02:09:04,VALID,1004.21,VALID,0,VALID,90.7303,VALID,0,VALID,25.6292,VALID,2,VALID,0.509375,
2009-06-15, 02:10:04,VALID,1004.21,VALID,0,VALID,90.9439,VALID,0,VALID,25.6292,VALID,57,VALID,0.829687,
2009-06-15, 02:11:04,VALID,1004.18,VALID,0,VALID,90.8981,VALID,0,VALID,25.6681,VALID,41,VALID,0.136719,
2009-06-15, 02:12:04,VALID,1004.21,VALID,0,VALID,90.8752,VALID,0,VALID,25.6681,VALID,41,VALID,0.416797,
2009-06-15, 02:13:04,VALID,1004.22,VALID,0,VALID,90.9057,VALID,0,VALID,25.6486,VALID,40,VALID,0.319141,
2009-06-15, 02:14:04,VALID,1004.2,VALID,0,VALID,90.9515,VALID,0,VALID,25.67,VALID,115,VALID,1.32617,
2009-06-15, 02:15:04,VALID,1004.18,VALID,0,VALID,90.8676,VALID,0,VALID,25.6895,VALID,73,VALID,0.987891,
2009-06-15, 02:16:04,VALID,1004.18,VALID,0,VALID,90.7532,VALID,0,VALID,25.67,VALID,58,VALID,0.444922,
2009-06-15, 02:17:04,VALID,1004.17,VALID,0,VALID,90.7379,VALID,0,VALID,25.6895,VALID,42,VALID,0.391797,
2009-06-15, 02:18:04,VALID,1004.19,VALID,0,VALID,90.593,VALID,0,VALID,25.6681,VALID,42,VALID,0.389844,
2009-06-15, 02:19:04,VALID,1004.18,VALID,0,VALID,90.6921,VALID,0,VALID,25.6895,VALID,44,VALID,0.616797,
2009-06-15, 02:20:04,VALID,1004.16,VALID,0,VALID,90.7913,VALID,0,VALID,25.67,VALID,61,VALID,0.446484,
2009-06-15, 02:21:04,VALID,1004.16,VALID,0,VALID,90.776,VALID,0,VALID,25.6486,VALID,61,VALID,0.155469,
2009-06-15, 02:22:04,VALID,1004.18,VALID,0,VALID,90.715,VALID,0,VALID,25.67,VALID,43,VALID,0.564062,
2009-06-15, 02:23:04,VALID,1004.15,VALID,0,VALID,90.7684,VALID,0,VALID,25.672,VALID,33,VALID,0.368359,
2009-06-15, 02:24:04,VALID,1004.13,VALID,0,VALID,90.8218,VALID,0,VALID,25.6292,VALID,82,VALID,0.692969,
2009-06-15, 02:25:04,VALID,1004.14,VALID,0,VALID,90.8371,VALID,0,VALID,25.6311,VALID,79,VALID,0.565234,
2009-06-15, 02:26:04,VALID,1004.13,VALID,0,VALID,90.8218,VALID,0,VALID,25.6097,VALID,61,VALID,0.317969,
2009-06-15, 02:27:04,VALID,1004.09,VALID,0,VALID,90.86,VALID,0,VALID,25.6116,VALID,61,VALID,0.289453,
2009-06-15, 02:28:04,VALID,1004.08,VALID,0,VALID,90.9286,VALID,0,VALID,25.5921,VALID,77,VALID,0.774219,
2009-06-15, 02:29:04,VALID,1004.07,VALID,0,VALID,90.9668,VALID,0,VALID,25.5727,VALID,68,VALID,0.552344,
2009-06-15, 02:30:04,VALID,1004.06,VALID,0,VALID,91.0354,VALID,0,VALID,25.5318,VALID,103,VALID,0.604297,
2009-06-15, 02:31:04,VALID,1004.05,VALID,0,VALID,91.0888,VALID,0,VALID,25.5318,VALID,88,VALID,0.685156,
2009-06-15, 02:32:04,VALID,1004.04,VALID,0,VALID,91.0583,VALID,0,VALID,25.5123,VALID,78,VALID,1.13945,
2009-06-15, 02:33:04,VALID,1004.06,VALID,0,VALID,90.9668,VALID,0,VALID,25.5142,VALID,84,VALID,0.392578,
2009-06-15, 02:34:04,VALID,1004.04,VALID,0,VALID,90.9515,VALID,0,VALID,25.4948,VALID,92,VALID,0.605469,
2009-06-15, 02:35:04,VALID,1004.05,VALID,0,VALID,90.8752,VALID,0,VALID,25.4948,VALID,36,VALID,0.673047,
2009-06-15, 02:36:04,VALID,1004.06,VALID,0,VALID,90.8295,VALID,0,VALID,25.4558,VALID,75,VALID,0.530469,
2009-06-15, 02:37:04,VALID,1004.03,VALID,0,VALID,90.8142,VALID,0,VALID,25.4169,VALID,64,VALID,0.562109,
2009-06-15, 02:38:04,VALID,1004.01,VALID,0,VALID,90.7837,VALID,0,VALID,25.3955,VALID,69,VALID,0.296094,
2009-06-15, 02:39:04,VALID,1003.98,VALID,0,VALID,90.776,VALID,0,VALID,25.376,VALID,83,VALID,0.830078,
2009-06-15, 02:40:04,VALID,1003.94,VALID,0,VALID,90.715,VALID,0,VALID,25.3974,VALID,53,VALID,0.362891,
2009-06-15, 02:41:04,VALID,1003.9,VALID,0,VALID,90.6158,VALID,0,VALID,25.376,VALID,38,VALID,0.655078,
2009-06-15, 02:42:04,VALID,1003.9,VALID,0,VALID,90.5624,VALID,0,VALID,25.3974,VALID,44,VALID,0.160938,
2009-06-15, 02:43:04,VALID,1003.92,VALID,0,VALID,90.593,VALID,0,VALID,25.3779,VALID,38,VALID,0.685156,
2009-06-15, 02:44:04,VALID,1003.91,VALID,0,VALID,90.6311,VALID,0,VALID,25.3779,VALID,7,VALID,1.14844,
2009-06-15, 02:45:04,VALID,1003.91,VALID,0,VALID,90.5548,VALID,0,VALID,25.4169,VALID,34,VALID,0.986328,
2009-06-15, 02:46:04,VALID,1003.91,VALID,0,VALID,90.3793,VALID,0,VALID,25.4363,VALID,43,VALID,0.524609,
2009-06-15, 02:47:04,VALID,1003.96,VALID,0,VALID,90.3031,VALID,0,VALID,25.4558,VALID,33,VALID,0.482422,
2009-06-15, 02:48:04,VALID,1003.97,VALID,0,VALID,90.1734,VALID,0,VALID,25.4948,VALID,66,VALID,0.398438,
2009-06-15, 02:49:04,VALID,1003.96,VALID,0,VALID,90.0666,VALID,0,VALID,25.4734,VALID,47,VALID,0.552734,
2009-06-15, 02:50:04,VALID,1003.99,VALID,0,VALID,89.9979,VALID,0,VALID,25.4948,VALID,100,VALID,0.902734,
2009-06-15, 02:51:04,VALID,1003.94,VALID,0,VALID,89.914,VALID,0,VALID,25.5142,VALID,99,VALID,0.476172,
2009-06-15, 02:52:04,VALID,1003.93,VALID,0,VALID,89.8301,VALID,0,VALID,25.5318,VALID,74,VALID,1.06875,
2009-06-15, 02:53:04,VALID,1003.92,VALID,0,VALID,89.6699,VALID,0,VALID,25.5337,VALID,29,VALID,1.07383,
2009-06-15, 02:54:04,VALID,1003.92,VALID,0,VALID,89.5097,VALID,0,VALID,25.5318,VALID,56,VALID,0.541797,
2009-06-15, 02:55:04,VALID,1003.96,VALID,0,VALID,89.4486,VALID,0,VALID,25.5318,VALID,40,VALID,0.273828,
2009-06-15, 02:56:04,VALID,1003.95,VALID,0,VALID,89.4944,VALID,0,VALID,25.5532,VALID,73,VALID,1.15273,
2009-06-15, 02:57:04,VALID,1003.97,VALID,0,VALID,89.4181,VALID,0,VALID,25.5727,VALID,62,VALID,0.60625,
2009-06-15, 02:58:04,VALID,1004.01,VALID,0,VALID,89.3189,VALID,0,VALID,25.6116,VALID,86,VALID,0.603125,
2009-06-15, 02:59:04,VALID,1004,VALID,0,VALID,89.2121,VALID,0,VALID,25.6116,VALID,36,VALID,0.640625,
2009-06-15, 03:00:04,VALID,1003.97,VALID,0,VALID,89.1053,VALID,0,VALID,25.6311,VALID,24,VALID,1.26563,
2009-06-15, 03:01:04,VALID,1003.97,VALID,0,VALID,88.9604,VALID,0,VALID,25.6506,VALID,36,VALID,0.436719,
2009-06-15, 03:02:04,VALID,1003.97,VALID,0,VALID,88.8993,VALID,0,VALID,25.6311,VALID,29,VALID,0.907031,
2009-06-15, 03:03:04,VALID,1003.95,VALID,0,VALID,88.8917,VALID,0,VALID,25.6116,VALID,50,VALID,0.435156,
2009-06-15, 03:04:04,VALID,1003.96,VALID,0,VALID,88.907,VALID,0,VALID,25.5921,VALID,349,VALID,0.359766,
2009-06-15, 03:05:04,VALID,1003.96,VALID,0,VALID,88.9299,VALID,0,VALID,25.5902,VALID,92,VALID,0.798828,
2009-06-15, 03:06:04,VALID,1003.98,VALID,0,VALID,88.9527,VALID,0,VALID,25.6116,VALID,105,VALID,0.751562,
2009-06-15, 03:07:04,VALID,1003.99,VALID,0,VALID,88.9604,VALID,0,VALID,25.5921,VALID,81,VALID,0.569531,
2009-06-15, 03:08:04,VALID,1004,VALID,0,VALID,88.907,VALID,0,VALID,25.5902,VALID,97,VALID,0.649219,
2009-06-15, 03:09:04,VALID,1004,VALID,0,VALID,88.8536,VALID,0,VALID,25.5902,VALID,105,VALID,0.864062,
2009-06-15, 03:10:04,VALID,1003.99,VALID,0,VALID,88.8002,VALID,0,VALID,25.5902,VALID,100,VALID,0.630859,
2009-06-15, 03:11:04,VALID,1003.98,VALID,0,VALID,88.8002,VALID,0,VALID,25.5921,VALID,92,VALID,0.505859,
2009-06-15, 03:12:04,VALID,1004.01,VALID,0,VALID,88.8154,VALID,0,VALID,25.5921,VALID,81,VALID,0.435937,
2009-06-15, 03:13:04,VALID,1004.01,VALID,0,VALID,88.8078,VALID,0,VALID,25.5532,VALID,81,VALID,0.348828,
2009-06-15, 03:14:04,VALID,1004.03,VALID,0,VALID,88.8917,VALID,0,VALID,25.5337,VALID,79,VALID,0.4625,
2009-06-15, 03:15:04,VALID,1004.04,VALID,0,VALID,89.0214,VALID,0,VALID,25.4539,VALID,79,VALID,0.306641,
2009-06-15, 03:16:04,VALID,1004.06,VALID,0,VALID,89.2045,VALID,0,VALID,25.4149,VALID,77,VALID,0.387891,
2009-06-15, 03:17:04,VALID,1004.05,VALID,0,VALID,89.4105,VALID,0,VALID,25.376,VALID,53,VALID,0.722266,
2009-06-15, 03:18:04,VALID,1004.06,VALID,0,VALID,89.6699,VALID,0,VALID,25.3779,VALID,29,VALID,1.20391,
2009-06-15, 03:19:04,VALID,1004.04,VALID,0,VALID,89.5707,VALID,0,VALID,25.4363,VALID,56,VALID,0.43125,
2009-06-15, 03:20:04,VALID,1004.01,VALID,0,VALID,89.441,VALID,0,VALID,25.4363,VALID,60,VALID,0.332422,
2009-06-15, 03:21:04,VALID,1004.01,VALID,0,VALID,89.4486,VALID,0,VALID,25.4344,VALID,72,VALID,0.588281,
2009-06-15, 03:22:04,VALID,1004,VALID,0,VALID,89.2655,VALID,0,VALID,25.3955,VALID,72,VALID,0.60625,
2009-06-15, 03:23:04,VALID,1004,VALID,0,VALID,89.3494,VALID,0.100563,VALID,25.3565,VALID,78,VALID,0.308984,
2009-06-15, 03:24:04,VALID,1003.98,VALID,0,VALID,89.4944,VALID,0,VALID,25.3584,VALID,76,VALID,0.45625,
2009-06-15, 03:25:04,VALID,1003.97,VALID,0,VALID,89.6699,VALID,0,VALID,25.3195,VALID,80,VALID,0.651172,
2009-06-15, 03:26:04,VALID,1003.95,VALID,0,VALID,89.8453,VALID,0,VALID,25.3176,VALID,97,VALID,0.846484,
2009-06-15, 03:27:04,VALID,1003.95,VALID,0,VALID,89.8758,VALID,0,VALID,25.339,VALID,61,VALID,0.452344,
2009-06-15, 03:28:04,VALID,1003.95,VALID,0,VALID,89.6851,VALID,0,VALID,25.337,VALID,59,VALID,0.529297,
2009-06-15, 03:29:04,VALID,1003.99,VALID,0,VALID,89.7538,VALID,0,VALID,25.3584,VALID,84,VALID,1.1082,
2009-06-15, 03:30:04,VALID,1003.98,VALID,0,VALID,89.7385,VALID,0,VALID,25.376,VALID,75,VALID,1.13516,
2009-06-15, 03:31:04,VALID,1003.99,VALID,0,VALID,89.5173,VALID,0,VALID,25.4149,VALID,74,VALID,0.533594,
2009-06-15, 03:32:04,VALID,1004.01,VALID,0,VALID,89.3418,VALID,0,VALID,25.4344,VALID,62,VALID,0.864844,
2009-06-15, 03:33:04,VALID,1003.98,VALID,0,VALID,89.2198,VALID,0,VALID,25.4558,VALID,55,VALID,0.445703,
2009-06-15, 03:34:04,VALID,1004.01,VALID,0,VALID,89.1511,VALID,0,VALID,25.4753,VALID,78,VALID,0.971094,
2009-06-15, 03:35:04,VALID,1003.99,VALID,0,VALID,89.0595,VALID,0,VALID,25.4539,VALID,88,VALID,0.745313,
2009-06-15, 03:36:04,VALID,1004,VALID,0,VALID,89.0443,VALID,0,VALID,25.4344,VALID,79,VALID,0.596875,
2009-06-15, 03:37:04,VALID,1003.99,VALID,0,VALID,89.0824,VALID,0,VALID,25.4539,VALID,82,VALID,1.25156,
2009-06-15, 03:38:04,VALID,1003.99,VALID,0,VALID,88.968,VALID,0,VALID,25.4928,VALID,78,VALID,1.025,
2009-06-15, 03:39:04,VALID,1004.02,VALID,0,VALID,88.8231,VALID,0,VALID,25.4928,VALID,47,VALID,0.629297,
2009-06-15, 03:40:04,VALID,1004.02,VALID,0,VALID,88.8307,VALID,0,VALID,25.4948,VALID,85,VALID,0.364453,
2009-06-15, 03:41:04,VALID,1004.01,VALID,0,VALID,88.8459,VALID,0,VALID,25.452,VALID,104,VALID,0.992578,
2009-06-15, 03:42:04,VALID,1004.02,VALID,0,VALID,88.8993,VALID,0,VALID,25.5142,VALID,83,VALID,0.285156,
2009-06-15, 03:43:04,VALID,1004.04,VALID,0,VALID,88.8688,VALID,0,VALID,25.4539,VALID,89,VALID,0.196484,
2009-06-15, 03:44:04,VALID,1004.03,VALID,0,VALID,88.8612,VALID,0,VALID,25.4169,VALID,89,VALID,0.113281,
2009-06-15, 03:45:04,VALID,1004,VALID,0,VALID,89.235,VALID,0,VALID,25.4344,VALID,85,VALID,0.968359,
2009-06-15, 03:46:04,VALID,1004,VALID,0,VALID,89.1511,VALID,0,VALID,25.4558,VALID,77,VALID,0.723047,